Terminal Aerodrome Forecast
Issued by NWS Austin/San Antonio, TX

Home | Current Version | Previous Version | Text Only | Print | Product List | Glossary On
Versions: 1 2 3 4 5 6 7 8 9 10 11 12 13 14 15 16 17 18 19
000
FTUS44 KEWX 020500
TAFDRT
TAF
KDRT 020531Z 0206/0306 00000KT P6SM BKN250
     FM021500 14008KT P6SM SCT035 SCT100 BKN250
     FM030300 12007KT P6SM BKN250=

USA.gov is the U.S. government's official web portal to all federal, state and local government web resources and services.